CW1923 Weather Reports


Display with metric or nautical units.
time (UTC)temp
F
wind
direction
speed
MPH
gust
MPH
rain 1hr
in
rain 24hr
in
rain mn
in
humidity
%
barometer
mb
20260905185436 64 324 0.0 0.0 0.00 0.00 0.00 73 1025.8
20260905184933 64 324 0.0 2.0 0.00 0.00 0.00 72 1025.8
20260905184432 64 324 0.0 2.0 0.00 0.00 0.00 71 1025.7
20260905183931 65 324 0.0 2.0 0.00 0.00 0.00 71 1025.7
20260905183431 65 324 0.0 2.0 0.00 0.00 0.00 70 1025.8
20260905182931 65 324 0.0 2.0 0.00 0.00 0.00 70 1025.7
20260905182432 65 323 0.0 2.0 0.00 0.00 0.00 69 1025.6
20260905181933 66 323 0.0 2.0 0.00 0.00 0.00 69 1025.6
20260905181433 66 323 0.0 2.0 0.00 0.00 0.00 69 1025.6
20260905180929 66 323 0.0 2.0 0.00 0.00 0.00 68 1025.6
20260905180429 67 323 0.0 2.0 0.00 0.00 0.00 68 1025.5
20260905175929 67 322 0.0 4.0 0.00 0.00 0.00 67 1025.4
20260905175408 67 322 0.0 4.0 0.00 0.00 0.00 67 1025.4
20260905174904 67 322 0.0 4.0 0.00 0.00 0.00 66 1025.4
20260905174406 68 322 0.0 4.0 0.00 0.00 0.00 65 1025.5
20260905173905 68 321 0.0 4.0 0.00 0.00 0.00 65 1025.4
20260905173406 69 323 0.0 2.0 0.00 0.00 0.00 64 1025.3
20260905172904 69 322 0.0 4.0 0.00 0.00 0.00 64 1025.2
20260905172407 69 324 2.0 4.0 0.00 0.00 0.00 63 1025.4
20260905171404 71 324 0.0 5.0 0.00 0.00 0.00 60 1025.2
20260905170904 71 324 0.0 5.0 0.00 0.00 0.00 59 1025.1
20260905170406 72 342 0.0 4.0 0.00 0.00 0.00 59 1025.1
20260905165904 72 323 0.0 7.0 0.00 0.00 0.00 59 1025.1
20260905165405 72 320 0.0 7.0 0.00 0.00 0.00 58 1025.0
20260905164904 72 298 0.0 4.0 0.00 0.00 0.00 59 1025.0
20260905164403 72 297 2.0 5.0 0.00 0.00 0.00 58 1024.9
20260905163901 73 291 0.0 5.0 0.00 0.00 0.00 58 1024.9
20260905162856 73 331 2.0 5.0 0.00 0.00 0.00 58 1024.9
20260905162355 73 310 0.0 5.0 0.00 0.00 0.00 57 1024.7
20260905161854 73 64 2.0 5.0 0.00 0.00 0.00 57 1024.8
20260905161351 74 64 2.0 5.0 0.00 0.00 0.00 57 1024.7
20260905160848 74 1 2.0 7.0 0.00 0.00 0.00 56 1024.7
20260905155849 74 261 2.0 9.0 0.00 0.00 0.00 57 1024.6
20260905154845 73 322 5.0 22.0 0.00 0.00 0.00 58 1024.5
20260905154344 73 271 5.0 22.0 0.00 0.00 0.00 57 1024.6
20260905153844 72 259 5.0 16.0 0.00 0.00 0.00 57 1024.5
20260905153344 72 301 4.0 12.0 0.00 0.00 0.00 58 1024.6
20260905152847 71 239 5.0 12.0 0.00 0.00 0.00 59 1024.6
20260905151339 71 245 5.0 16.0 0.00 0.00 0.00 57 1024.3
20260905150840 72 8 7.0 22.0 0.00 0.00 0.00 57 1024.4
20260905150333 72 272 5.0 22.0 0.00 0.00 0.00 57 1024.2
20260905145836 73 293 5.0 18.0 0.00 0.00 0.00 56 1024.3
20260905145332 73 255 5.0 18.0 0.00 0.00 0.00 57 1024.4
20260905144835 72 39 7.0 18.0 0.00 0.00 0.00 58 1024.2
20260905143830 72 283 4.0 16.0 0.00 0.00 0.00 56 1024.2
20260905143330 74 299 4.0 12.0 0.00 0.00 0.00 57 1024.2
20260905142830 74 271 5.0 18.0 0.00 0.00 0.00 58 1024.2
20260905141333 73 272 7.0 20.0 0.00 0.09 0.00 56 1024.1
20260905140832 73 308 7.0 18.0 0.00 0.09 0.00 57 1024.1
20260905135334 73 289 4.0 14.0 0.00 0.09 0.00 57 1024.0
20260905134332 73 265 5.0 20.0 0.00 0.09 0.00 58 1024.1
20260905133332 73 35 5.0 25.0 0.00 0.10 0.00 56 1024.1
20260905132331 73 61 4.0 14.0 0.00 0.11 0.00 56 1023.9
20260905131830 73 292 4.0 14.0 0.00 0.11 0.00 58 1023.9
20260905131331 74 326 2.0 12.0 0.00 0.11 0.00 58 1023.8
20260905130833 74 81 4.0 16.0 0.00 0.11 0.00 57 1023.8
20260905125329 73 311 9.0 18.0 0.00 0.11 0.00 59 1023.6
20260905124329 73 271 5.0 16.0 0.00 0.11 0.00 60 1023.7
20260905123832 72 208 4.0 14.0 0.00 0.11 0.00 60 1023.7
20260905123327 72 99 5.0 18.0 0.00 0.11 0.00 61 1023.6
20260905122827 71 60 7.0 18.0 0.00 0.11 0.00 61 1023.6
20260905122327 73 273 5.0 18.0 0.00 0.11 0.00 59 1023.7
20260905121828 73 288 7.0 20.0 0.00 0.11 0.00 58 1023.4
20260905121328 72 282 7.0 22.0 0.00 0.11 0.00 58 1023.5
20260905120825 72 266 7.0 22.0 0.00 0.11 0.00 60 1023.5
20260905120326 71 262 4.0 20.0 0.00 0.11 0.00 62 1023.4
20260905115820 71 359 4.0 16.0 0.00 0.11 0.00 62 1023.5
20260905115321 71 58 4.0 16.0 0.00 0.11 0.00 61 1023.6
20260905113817 71 334 5.0 20.0 0.00 0.11 0.00 64 1023.4
20260905113317 71 265 7.0 18.0 0.00 0.11 0.00 63 1023.4
20260905112820 71 203 7.0 20.0 0.00 0.11 0.00 65 1023.3
20260905112316 71 288 5.0 27.0 0.00 0.11 0.00 65 1023.2
20260905111315 71 248 4.0 14.0 0.00 0.11 0.00 66 1023.1
20260905110815 70 45 2.0 9.0 0.00 0.11 0.00 69 1023.3
20260905105816 70 258 5.0 16.0 0.00 0.11 0.00 70 1023.1
20260905105311 69 223 7.0 23.0 0.00 0.11 0.00 69 1023.3
20260905104811 69 265 5.0 23.0 0.00 0.11 0.00 70 1023.2
20260905104311 69 285 5.0 20.0 0.00 0.11 0.00 70 1023.1
20260905103814 69 328 7.0 20.0 0.00 0.11 0.00 69 1023.0
20260905103313 69 297 7.0 20.0 0.00 0.11 0.00 71 1023.0
20260905102809 69 297 5.0 18.0 0.00 0.11 0.00 71 1023.0
20260905102310 69 285 5.0 14.0 0.00 0.11 0.00 70 1022.9
20260905101310 67 295 4.0 9.0 0.00 0.11 0.00 75 1023.0
20260905100807 67 312 4.0 9.0 0.00 0.11 0.00 75 1023.0
20260905100305 67 39 7.0 18.0 0.00 0.11 0.00 75 1023.0
20260905095803 67 284 7.0 20.0 0.00 0.11 0.00 75 1022.9
20260905094806 67 270 5.0 23.0 0.00 0.11 0.00 75 1022.9
20260905094306 68 43 7.0 23.0 0.00 0.11 0.00 75 1022.9
20260905093806 68 2 7.0 20.0 0.00 0.11 0.00 77 1022.8
20260905091802 67 281 7.0 20.0 0.00 0.11 0.00 78 1022.7
20260905091306 66 264 7.0 20.0 0.00 0.11 0.00 79 1022.6
20260905090803 66 272 7.0 18.0 0.00 0.11 0.00 81 1022.6
20260905090303 66 247 5.0 18.0 0.00 0.11 0.00 81 1022.5
20260905085804 66 292 5.0 22.0 0.00 0.11 0.00 81 1022.6
20260905085305 65 295 7.0 22.0 0.00 0.11 0.00 82 1022.5
20260905084802 65 319 7.0 22.0 0.00 0.11 0.00 82 1022.4
20260905084304 65 272 7.0 22.0 0.00 0.11 0.00 82 1022.3
20260905083802 65 299 5.0 16.0 0.00 0.11 0.00 82 1022.3
20260905082306 64 299 7.0 18.0 0.00 0.11 0.00 83 1022.1
20260905081806 65 336 5.0 18.0 0.00 0.11 0.00 83 1022.0
20260905081307 65 193 5.0 12.0 0.00 0.11 0.00 83 1021.8
20260905080803 64 293 5.0 16.0 0.00 0.11 0.00 84 1021.6
20260905080302 64 320 7.0 20.0 0.00 0.11 0.00 85 1021.7
20260905075306 63 331 7.0 18.0 0.00 0.11 0.00 85 1021.6
20260905074803 63 239 5.0 16.0 0.00 0.11 0.00 85 1021.6
20260905074300 63 220 5.0 16.0 0.00 0.11 0.00 85 1021.6
20260905073802 62 276 5.0 12.0 0.00 0.11 0.00 86 1021.6
20260905073303 62 275 5.0 18.0 0.00 0.11 0.00 86 1021.3
20260905072306 62 297 4.0 14.0 0.00 0.11 0.00 86 1021.3
20260905071801 62 298 4.0 11.0 0.00 0.11 0.00 87 1021.4
20260905071302 61 204 4.0 7.0 0.00 0.11 0.00 87 1021.3
20260905070800 61 283 5.0 12.0 0.00 0.11 0.00 88 1021.1
20260905070300 61 304 4.0 12.0 0.00 0.11 0.00 88 1021.2
20260905065800 60 311 4.0 11.0 0.00 0.11 0.00 90 1021.2
20260905065258 59 301 4.0 14.0 0.00 0.11 0.00 90 1021.1
20260905064247 59 282 4.0 12.0 0.00 0.11 0.00 91 1021.0
20260905063246 58 159 4.0 16.0 0.00 0.11 0.00 91 1021.0
20260905062244 58 287 4.0 11.0 0.00 0.11 0.00 92 1020.9
20260905061738 58 276 4.0 5.0 0.00 0.11 0.00 92 1020.8
20260905061233 58 249 2.0 7.0 0.00 0.11 0.00 92 1020.7
20260905060734 57 288 2.0 9.0 0.00 0.11 0.00 92 1020.9
20260905060232 57 304 2.0 9.0 0.00 0.11 0.00 92 1020.7
20260905055733 57 289 2.0 12.0 0.00 0.11 0.00 93 1020.6
20260905054232 57 306 2.0 11.0 0.00 0.11 0.00 93 1020.5
20260905053734 57 300 2.0 11.0 0.00 0.11 0.00 93 1020.4
20260905053233 57 247 2.0 5.0 0.00 0.11 0.00 93 1020.4
20260905052734 57 272 0.0 5.0 0.00 0.11 0.00 93 1020.2
20260905052232 57 287 0.0 4.0 0.00 0.11 0.00 93 1020.2
20260905051230 57 287 0.0 4.0 0.00 0.11 0.00 92 1020.1
20260905050734 57 287 0.0 4.0 0.00 0.11 0.00 92 1020.1
20260905050232 57 287 0.0 4.0 0.00 0.11 0.00 92 1019.8
20260905045232 57 287 2.0 5.0 0.00 0.11 0.00 92 1019.9
20260905044732 57 287 2.0 5.0 0.00 0.11 0.00 92 1019.9
20260905043732 57 287 2.0 5.0 0.00 0.11 0.00 92 1019.7
20260905042732 57 284 2.0 5.0 0.00 0.11 0.00 93 1019.5
20260905042231 57 284 2.0 5.0 0.00 0.11 0.00 93 1019.4
20260905041730 57 284 2.0 5.0 0.00 0.11 0.00 93 1019.4
20260905041223 58 284 2.0 7.0 0.00 0.11 0.00 93 1019.3
20260905040221 58 280 2.0 9.0 0.00 0.11 0.00 93 1019.2
20260905035722 58 266 2.0 5.0 0.00 0.11 0.00 93 1019.1
20260905035218 58 256 2.0 5.0 0.00 0.11 0.00 93 1019.0
20260905034722 58 253 2.0 5.0 0.00 0.11 0.00 93 1019.1
20260905034219 58 241 2.0 7.0 0.00 0.11 0.00 93 1019.1
20260905033713 58 237 2.0 7.0 0.00 0.11 0.00 94 1019.1
20260905033213 58 287 2.0 9.0 0.00 0.11 0.00 94 1019.1
20260905032707 58 285 2.0 9.0 0.00 0.11 0.00 94 1019.0
20260905030705 59 283 2.0 11.0 0.00 0.11 0.00 94 1018.8
20260905030205 59 301 2.0 11.0 0.00 0.11 0.00 94 1018.7
20260905025706 59 264 2.0 7.0 0.00 0.11 0.00 94 1018.6
20260905025203 59 260 2.0 7.0 0.00 0.11 0.00 94 1018.7
20260905024703 59 256 0.0 4.0 0.00 0.11 0.00 94 1018.8
20260905024204 59 266 0.0 4.0 0.00 0.11 0.00 94 1018.7
20260905023204 59 261 0.0 5.0 0.00 0.11 0.00 94 1018.7
20260905022652 59 259 0.0 5.0 0.00 0.11 0.00 94 1018.6
20260905022153 60 259 0.0 5.0 0.00 0.11 0.00 94 1018.7
20260905021657 60 260 0.0 4.0 0.00 0.11 0.00 94 1018.6
20260905021154 60 259 0.0 4.0 0.00 0.11 0.00 94 1018.6
20260905020647 60 258 0.0 5.0 0.00 0.11 0.00 94 1018.5
20260905015647 59 256 0.0 5.0 0.00 0.11 0.00 93 1018.6
20260905015146 59 249 0.0 0.0 0.00 0.11 0.00 93 1018.5
20260905014132 59 249 0.0 0.0 0.00 0.11 0.00 93 1018.5
20260905013131 59 248 0.0 0.0 0.00 0.11 0.00 92 1018.3
20260905012632 59 248 0.0 0.0 0.00 0.11 0.00 92 1018.4
20260905012126 60 248 0.0 0.0 0.00 0.11 0.00 92 1018.3
20260905011616 60 248 0.0 0.0 0.00 0.11 0.00 91 1018.3
20260905011111 60 248 0.0 0.0 0.00 0.11 0.00 91 1018.3
20260905010605 60 248 0.0 0.0 0.00 0.11 0.00 91 1018.3
20260905010104 60 248 0.0 0.0 0.00 0.11 0.00 91 1018.3
20260905005606 60 248 0.0 4.0 0.00 0.11 0.00 91 1018.2
20260905004604 60 248 0.0 0.0 0.00 0.11 0.00 91 1018.2
20260905004104 60 248 0.0 0.0 0.00 0.11 0.00 91 1018.2
20260905003605 60 248 0.0 0.0 0.00 0.11 0.00 91 1018.2
20260905003103 60 248 0.0 0.0 0.00 0.11 0.00 91 1018.1
20260905002604 60 248 0.0 2.0 0.00 0.11 0.00 91 1018.1
20260905002103 60 247 0.0 2.0 0.00 0.11 0.00 91 1018.1
20260905001103 60 246 0.0 0.0 0.00 0.11 0.00 91 1018.1
20260905000604 60 246 0.0 0.0 0.00 0.11 0.00 91 1018.0
20260904235052 61 246 0.0 0.0 0.00 0.11 0.00 91 1018.0
20260904234044 61 246 0.0 0.0 0.00 0.11 0.00 91 1018.0
20260904233542 61 245 0.0 0.0 0.00 0.11 0.00 91 1017.8
20260904233047 61 245 0.0 2.0 0.00 0.11 0.00 91 1017.9
20260904232032 61 245 0.0 4.0 0.00 0.11 0.00 91 1017.9
20260904231532 61 245 0.0 0.0 0.00 0.11 0.00 91 1017.9
20260904231031 61 245 0.0 0.0 0.00 0.11 0.00 90 1017.8
20260904230533 62 245 0.0 2.0 0.00 0.11 0.00 90 1017.8
20260904230022 62 245 0.0 4.0 0.00 0.11 0.00 90 1017.8
20260904225522 62 245 0.0 4.0 0.00 0.11 0.00 90 1017.7
20260904224523 62 245 0.0 2.0 0.00 0.11 0.00 89 1017.7
20260904224008 62 245 0.0 0.0 0.00 0.11 0.00 89 1017.7
20260904223007 63 245 0.0 2.0 0.00 0.11 0.00 89 1017.6
20260904222505 63 245 0.0 2.0 0.00 0.11 0.00 89 1017.6
20260904221505 63 245 0.0 4.0 0.00 0.11 0.00 89 1017.5
20260904220005 64 245 0.0 5.0 0.00 0.11 0.00 89 1017.3
20260904215506 64 245 2.0 5.0 0.00 0.11 0.11 90 1017.4
20260904214505 64 243 2.0 5.0 0.00 0.11 0.11 90 1017.2
20260904213959 64 241 0.0 5.0 0.00 0.11 0.11 91 1017.1
20260904213500 64 281 0.0 4.0 0.00 0.11 0.11 91 1017.1
20260904212954 64 281 2.0 7.0 0.00 0.11 0.11 92 1017.0
20260904211948 64 250 2.0 5.0 0.00 0.11 0.11 93 1017.1
20260904210945 64 291 0.0 5.0 0.00 0.11 0.11 94 1017.1
20260904204935 65 285 0.0 2.0 0.00 0.11 0.11 94 1017.0
20260904204433 65 285 0.0 5.0 0.00 0.11 0.11 94 1017.0
20260904203933 65 278 0.0 5.0 0.00 0.11 0.11 94 1017.0
20260904203434 65 278 0.0 5.0 0.00 0.11 0.11 94 1017.0
20260904201934 65 277 2.0 7.0 0.00 0.11 0.11 94 1016.7
20260904201433 65 278 2.0 7.0 0.00 0.11 0.11 94 1016.7
20260904200932 65 285 0.0 4.0 0.00 0.11 0.11 94 1016.5
20260904200433 65 285 0.0 7.0 0.00 0.11 0.11 94 1016.5
20260904195930 65 285 0.0 7.0 0.00 0.11 0.11 94 1016.5
20260904195432 65 276 0.0 5.0 0.00 0.11 0.11 94 1016.3
20260904194931 65 275 0.0 5.0 0.00 0.11 0.11 94 1016.3
20260904193933 65 276 0.0 4.0 0.00 0.11 0.11 94 1016.0
20260904193434 65 276 0.0 4.0 0.00 0.11 0.11 94 1016.0
20260904192422 66 276 2.0 7.0 0.00 0.11 0.11 94 1016.1
20260904191923 66 294 0.0 4.0 0.00 0.11 0.11 94 1016.1
20260904191424 66 294 2.0 11.0 0.00 0.11 0.11 94 1016.1
20260904190925 66 294 2.0 11.0 0.00 0.11 0.11 94 1015.9
20260904190417 66 273 2.0 7.0 0.00 0.11 0.11 94 1015.9
20260904185916 65 268 4.0 9.0 0.00 0.11 0.11 94 1015.5